Regional Weather Roundup
Issued by NWS Grand Forks, ND

Home | Current Version | Previous Version | Text Only | Print | Product List | Glossary Off
Versions: 1 2 3 4 5 6 7 8 9 10 11 12 13 14 15 16 17 18 19 20 21 22 23 24 25 26 27 28 29 30 31 32 33 34 35 36 37 38 39 40 41 42 43 44 45 46 47 48 49 50

000
ASUS43 KFGF 270010
RWRFGF
PRAIRIE TO PINES  WEATHER ROUNDUP
NATIONAL WEATHER SERVICE EASTERN NORTH DAKOTA/GRAND FORKS ND
700 PM CDT THU MAR 26 2015

 **SATELLITE DATA USED TO AUGMENT SKY COVER AT AUTOMATED STATIONS**
 *****  WEATHER ACROSS EASTERN NORTH DAKOTA  *****

CITY           SKY/WX    TMP DP  RH WIND       PRES   REMARKS
GRAND FORKS    MOCLDY    29  15  56 N13       30.29R WCI  19
6HR MIN TEMP:  29; 6HR MAX TEMP:  33; 6HR PCP: TRACE;

GRAND FRKS AFB MOCLDY    29  14  54 N10G22    30.29R WCI  20
GRAND FRKS NWS   N/A     28 N/A N/A N10         N/A  WCI  19
DEVILS LAKE    PTCLDY    30  18  59 NE6       30.26S WCI  24
6HR MIN TEMP:  28; 6HR MAX TEMP:  32;

FARGO          CLEAR     32   8  36 N18       30.26R WCI  20
WAHPETON ARPT  CLEAR     32   5  32 N13G22    30.25R WCI  22
$$

 ***** WEATHER ACROSS CENTRAL AND WESTERN NORTH DAKOTA  *****

CITY           SKY/WX    TMP DP  RH WIND       PRES   REMARKS
BISMARCK       CLOUDY    38  19  46 NE6       30.23S
6HR MIN TEMP:  34; 6HR MAX TEMP:  40;

MINOT          SUNNY     36  19  50 E6        30.22R
6HR MIN TEMP:  33; 6HR MAX TEMP:  39;

JAMESTOWN      CLEAR     32  12  43 NE14      30.24R WCI  22
6HR MIN TEMP:  32; 6HR MAX TEMP:  38;

MINOT AFB      SUNNY     36  23  59 SE3       30.21S
GARRISON         N/A     38  22  52 SE5       30.21R
WILLISTON      PTSUNNY   45  25  45 SE5       30.15F
6HR MIN TEMP:  40; 6HR MAX TEMP:  46;

DICKINSON      PTSUNNY   37  28  70 SE7       30.15S
6HR MIN TEMP:  33; 6HR MAX TEMP:  38;

HETTINGER      MOSUNNY   39  29  67 SE8       30.17R
6HR MIN TEMP:  32; 6HR MAX TEMP:  39;

$$

 *****  OTHER AIRPORT OBSERVATIONS IN OUR AREA  *****

CITY           SKY/WX    TMP DP  RH WIND       PRES   REMARKS
WALHALLA         N/A     28  19  69 N10       30.31S WCI  19
GRAFTON AIRPOR NOT AVBL
VALLEY CITY AR FAIR      28  14  54 NE14G20   30.26R WCI  17
CANDO          NOT AVBL
CAVALIER APRT  FAIR      28  18  64 N12       30.31S WCI  18
GWINNER        CLEAR     32  12  43 N20         N/A  WCI  20
SHEYENNE NWR     N/A     31  10  41 N10       29.95S WCI  22
ROLLA          CLOUDY    30  18  59 NE5       30.26R
 ***** THE ABOVE OBSERVATIONS ARE NON NWS ARE NOT QUALITY
       CONTROLLED AND MAY MIS-REPORT RAIN FOR SNOW...
$$

  *****  WEATHER ACROSS NORTHERN MINNESOTA  *****

CITY           SKY/WX    TMP DP  RH WIND       PRES   REMARKS
FLAG ISLAND    CLEAR     23   7  50 NW14      30.25R WCI  11
WARROAD        CLEAR     25   9  50 E3        30.25S
ROSEAU         CLEAR     28   9  43 N12       30.26R WCI  18
HALLOCK        CLEAR     28   9  43 N12       30.30R WCI  18
THF RVR FALLS  CLEAR     27   7  43 N12       30.26R WCI  16
6HR MIN TEMP:  25; 6HR MAX TEMP:  28;

BAUDETTE       CLEAR     24   1  36 N14       30.22S WCI  12
6HR MIN TEMP:  21; 6HR MAX TEMP:  25;

WASKISH        CLEAR     25   1  36 N10G20    30.23R WCI  15
CROOKSTON      CLEAR     28  10  47 N14       30.29R WCI  17
$$
  *****  WEATHER ACROSS CENTRAL AND WEST MINNESOTA  *****

CITY           SKY/WX    TMP DP  RH WIND       PRES   REMARKS
FOSSTON        CLEAR     28   7  40 N16       30.23R WCI  17
BEMIDJI        CLEAR     26  -2  29 N10G17    30.19S WCI  17
PARK RAPIDS    CLEAR     29  -5  22 N17       30.17R WCI  17
6HR MIN TEMP:  28; 6HR MAX TEMP:  32;

ELBOW LAKE     FAIR      29  12  48 N17       30.20R WCI  17
6HR MIN TEMP:  27; 6HR MAX TEMP:  32;

WADENA         CLEAR     28   9  43 N10       30.17R WCI  19
DETROIT LAKES  CLEAR     28  14  54 N10G22    30.21S WCI  19
MOORHEAD       CLEAR     30   3  31 N20G25    30.26R WCI  18
FERGUS FALLS   CLEAR     28   7  40 N12G24    30.24R WCI  18
MORRIS MN      CLEAR     30  16  55 N17       30.19R WCI  18
STAPLES        CLEAR     28   0  29 N12       30.16R WCI  18
$$
  *****  WEATHER ELSEWHERE ACROSS MINNESOTA  *****

CITY           SKY/WX    TMP DP  RH WIND       PRES   REMARKS
DULUTH         PTCLDY    27   1  32 N15       30.10R WCI  15
6HR MIN TEMP:  26; 6HR MAX TEMP:  30;

INTRNTL FALLS  CLEAR     24   0  35 N13       30.19R WCI  12
6HR MIN TEMP:  22; 6HR MAX TEMP:  27;

ELY            CLEAR     21  -2  35 N7        30.13S WCI  13
CLOQUET        CLEAR     27   0  31 N14G20    30.12R WCI  15
WHEATON        CLEAR     30  10  43 N15G24    30.25R WCI  19
BRAINERD       CLEAR     29   3  33 N16       30.16R WCI  17
6HR MIN TEMP:  28; 6HR MAX TEMP:  32;

HIBBING        CLEAR     26  -2  29 N16G23    30.14R WCI  14
6HR MIN TEMP:  24; 6HR MAX TEMP:  30;

ALEXANDRIA     CLEAR     30  11  45 N14G21    30.16R WCI  19
6HR MIN TEMP:  27; 6HR MAX TEMP:  32;

SAINT CLOUD    CLEAR     32   9  38 N12       30.13R WCI  23
6HR MIN TEMP:  30; 6HR MAX TEMP:  35;

MINNEAPOLIS    PTCLDY    33  10  38 N16       30.12R WCI  23
6HR MIN TEMP:  33; 6HR MAX TEMP:  36;

$$

  *****  WEATHER ACROSS SOUTH DAKOTA  *****

CITY           SKY/WX    TMP DP  RH WIND       PRES   REMARKS
SIOUX FALLS    MOCLDY    38  19  46 N18       30.15R
6HR MIN TEMP:  38; 6HR MAX TEMP:  40;

BROOKINGS      NOT AVBL
WATERTOWN      MOCLDY    31  14  49 N16       30.19R WCI  20
6HR MIN TEMP:  31; 6HR MAX TEMP:  37;

HURON          PTCLDY    36  17  46 N12       30.21R
6HR MIN TEMP:  35; 6HR MAX TEMP:  42;

SISSETON         N/A     32  13  45 N18       30.22R WCI  20
ABERDEEN       CLEAR     36  13  38 N17       30.24R
6HR MIN TEMP:  35; 6HR MAX TEMP:  40;

MITCHELL       PTCLDY    38  20  48 N13       30.20R
PIERRE         CLOUDY    36  31  82 W6        30.21R
6HR MIN TEMP:  30; 6HR MAX TEMP:  37; 6HR PCP: TRACE;

MOBRIDGE       CLOUDY    40  21  46 N6        30.18S
RAPID CITY     MOSUNNY   46  28  49 NE12      30.12S
6HR MIN TEMP:  46; 6HR MAX TEMP:  52;

$$

  *****  SOME WEATHER IN NEARBY STATES *****

CITY           SKY/WX    TMP DP  RH WIND       PRES   REMARKS
GLASGOW MT     CLOUDY    48  33  56 E17       30.05F
6HR MIN TEMP:  44; 6HR MAX TEMP:  51;

GREAT FALLS MT MOSUNNY   64  33  31 W23G30    30.08R
6HR MIN TEMP:  58; 6HR MAX TEMP:  67;

CHEYENNE WY    PTSUNNY   53  23  31 N21G29    30.12S
6HR MIN TEMP:  47; 6HR MAX TEMP:  54;

SCOTTSBLUFF NE CLOUDY    53  34  48 N18G28    30.11S
6HR MIN TEMP:  51; 6HR MAX TEMP:  56;

OMAHA NE       LGT RAIN  36  33  89 N10       30.16R
6HR MIN TEMP:  36; 6HR MAX TEMP:  50; 6HR PCP: TRACE;

DES MOINES IA  CLOUDY    42  23  46 N13       30.10R
6HR MIN TEMP:  42; 6HR MAX TEMP:  48;

DAVENPORT IA   CLEAR     37  22  54 NW15      30.06R
6HR MIN TEMP:  37; 6HR MAX TEMP:  45;

CHICAGO IL     CLOUDY    37  21  52 NW12      30.00S
6HR MIN TEMP:  37; 6HR MAX TEMP:  42;

EAU CLAIRE WI  CLOUDY    31  13  47 N7        30.08R WCI  24
6HR MIN TEMP:  31; 6HR MAX TEMP:  34;

LA CROSSE WI   CLOUDY    35  19  52 N9        30.08R
6HR MIN TEMP:  35; 6HR MAX TEMP:  38;

$$

  *****  SOME NATIONAL WEATHER *****

CITY           SKY/WX    TMP DP  RH WIND       PRES   REMARKS
LA GUARDIA NY  CLOUDY    57  53  86 S12       29.60R
6HR MIN TEMP:  51; 6HR MAX TEMP:  57; 6HR PCP:  0.03;

RALEIGH NC     CLOUDY    69  54  58 S7        29.73F
6HR MIN TEMP:  69; 6HR MAX TEMP:  75;

ATLANTA GA     CLOUDY    69  51  52 S5        29.79F
6HR MIN TEMP:  69; 6HR MAX TEMP:  74;

NEW ORLEANS LA CLOUDY    64  60  87 W3        29.87R
6HR MIN TEMP:  63; 6HR MAX TEMP:  65; 6HR PCP:  0.10;

OKLAHOMA CITY  PTCLDY    59  29  31 N7        30.12S
6HR MIN TEMP:  54; 6HR MAX TEMP:  62;

ALBUQUERQUE NM MOSUNNY   62  18  18 SW6       30.20F
6HR MIN TEMP:  51; 6HR MAX TEMP:  63;

SALT LAKE CITY PTSUNNY   60  26  27 N5        30.33F
6HR MIN TEMP:  53; 6HR MAX TEMP:  61;

LOS ANGELES CA SUNNY     77  43  29 W12       30.00F
6HR MIN TEMP:  76; 6HR MAX TEMP:  85;



USA.gov is the U.S. government's official web portal to all federal, state and local government web resources and services.